AAL2734 KDFW-KOKC

Flight info

Callsign AAL2734
Flight time 0h 38m
Altitude 28000
Route BLECO8 ZEMMA TSDEL3
Aircraft A319/M-SDE3FGHIRWY/LB1

Departure

Time 2026-05-09 01:21
Airport Dallas Fort Worth International Airport (KDFW)

Arrival

Time 2026-05-09 02:00
Airport OKC Will Rogers World Airport (KOKC)
Time Latitude Longitude Altitude Speed Heading
2026-05-09 00:47 32.90269 -97.04477 596 ft 0 kts 45°
2026-05-09 01:12 32.90253 -97.04497 596 ft 4 kts 44°
2026-05-09 01:13 32.90237 -97.04515 596 ft 4 kts 28°
2026-05-09 01:13 32.90215 -97.04518 596 ft 4 kts 329°
2026-05-09 01:13 32.90195 -97.04499 596 ft 4 kts 314°
2026-05-09 01:13 32.90176 -97.04476 596 ft 4 kts 314°
2026-05-09 01:14 32.90160 -97.04458 596 ft 4 kts 320°
2026-05-09 01:14 32.90140 -97.04437 596 ft 4 kts 307°
2026-05-09 01:14 32.90134 -97.04416 596 ft 4 kts 270°
2026-05-09 01:14 32.90134 -97.04399 596 ft 0 kts 270°
2026-05-09 01:17 32.90134 -97.04409 596 ft 6 kts 270°
2026-05-09 01:17 32.90134 -97.04520 597 ft 18 kts 270°
2026-05-09 01:17 32.90134 -97.04682 597 ft 18 kts 270°
2026-05-09 01:18 32.90172 -97.04763 597 ft 13 kts 352°
2026-05-09 01:18 32.90315 -97.04763 597 ft 26 kts
2026-05-09 01:18 32.90498 -97.04761 598 ft 27 kts
2026-05-09 01:18 32.90687 -97.04759 597 ft 27 kts
2026-05-09 01:19 32.90878 -97.04758 601 ft 27 kts 360°
2026-05-09 01:19 32.91039 -97.04784 606 ft 21 kts 340°
2026-05-09 01:19 32.91208 -97.04793 621 ft 27 kts 360°
2026-05-09 01:19 32.91395 -97.04792 615 ft 28 kts
2026-05-09 01:20 32.91543 -97.04802 613 ft 16 kts 332°
2026-05-09 01:20 32.91563 -97.04925 617 ft 17 kts 267°
2026-05-09 01:20 32.91557 -97.05059 619 ft 10 kts 243°
2026-05-09 01:20 32.91482 -97.05075 618 ft 16 kts 181°
2026-05-09 01:21 32.91119 -97.05076 613 ft 92 kts 180°
2026-05-09 01:21 32.90241 -97.05079 599 ft 157 kts 180°
2026-05-09 01:21 32.89056 -97.05070 1064 ft 173 kts 179°
2026-05-09 01:21 32.87847 -97.05025 1869 ft 174 kts 178°
2026-05-09 01:22 32.86614 -97.05008 2518 ft 186 kts 185°
2026-05-09 01:22 32.85276 -97.05331 2941 ft 208 kts 194°
2026-05-09 01:22 32.83819 -97.05835 3429 ft 230 kts 196°
2026-05-09 01:22 32.82219 -97.06413 4156 ft 246 kts 197°
2026-05-09 01:23 32.80568 -97.07008 5138 ft 251 kts 197°
2026-05-09 01:23 32.78957 -97.07855 6131 ft 256 kts 216°
2026-05-09 01:23 32.77701 -97.09359 7166 ft 259 kts 236°
2026-05-09 01:23 32.76991 -97.11324 8145 ft 263 kts 257°
2026-05-09 01:24 32.76648 -97.13465 9097 ft 266 kts 261°
2026-05-09 01:24 32.76616 -97.15692 9888 ft 276 kts 273°
2026-05-09 01:24 32.76761 -97.18019 10472 ft 294 kts 273°
2026-05-09 01:24 32.76978 -97.20531 10849 ft 317 kts 281°
2026-05-09 01:25 32.77849 -97.22982 11565 ft 330 kts 300°
2026-05-09 01:25 32.79457 -97.24975 12436 ft 342 kts 320°
2026-05-09 01:25 32.81609 -97.26265 13320 ft 350 kts 333°
2026-05-09 01:25 32.83951 -97.27162 14166 ft 359 kts 343°
2026-05-09 01:26 32.86470 -97.27413 14981 ft 369 kts 356°
2026-05-09 01:26 32.89049 -97.27330 15776 ft 372 kts 356°
2026-05-09 01:26 32.91645 -97.27250 16561 ft 375 kts 356°
2026-05-09 01:26 32.94268 -97.27175 17329 ft 378 kts 356°
2026-05-09 01:27 32.96901 -97.27108 18073 ft 380 kts 355°
2026-05-09 01:27 32.99550 -97.26980 18797 ft 387 kts
2026-05-09 01:27 33.02230 -97.26326 19516 ft 397 kts 11°
2026-05-09 01:27 33.04886 -97.25388 20201 ft 400 kts 11°
2026-05-09 01:28 33.07558 -97.24423 20850 ft 403 kts 11°
2026-05-09 01:28 33.10251 -97.23441 21500 ft 406 kts 11°
2026-05-09 01:28 33.12965 -97.22460 22121 ft 410 kts 11°
2026-05-09 01:28 33.15706 -97.21483 22736 ft 412 kts 11°
2026-05-09 01:29 33.18468 -97.20505 23318 ft 415 kts 11°
2026-05-09 01:29 33.21246 -97.19515 23892 ft 418 kts 11°
2026-05-09 01:29 33.24042 -97.18505 24443 ft 421 kts 11°
2026-05-09 01:29 33.26859 -97.17491 24931 ft 425 kts 11°
2026-05-09 01:30 33.29665 -97.16485 25388 ft 429 kts 11°
2026-05-09 01:30 33.32536 -97.15455 25837 ft 433 kts 11°
2026-05-09 01:30 33.35471 -97.14394 26287 ft 437 kts 11°
2026-05-09 01:30 33.38395 -97.13333 26701 ft 439 kts 11°
2026-05-09 01:31 33.41332 -97.12272 27053 ft 444 kts 10°
2026-05-09 01:31 33.44308 -97.11230 27448 ft 446 kts
2026-05-09 01:31 33.47354 -97.10592 27782 ft 443 kts 360°
2026-05-09 01:31 33.50415 -97.10184 27870 ft 440 kts 359°
2026-05-09 01:32 33.53437 -97.09799 27889 ft 435 kts 359°
2026-05-09 01:32 33.56441 -97.09429 27880 ft 433 kts 359°
2026-05-09 01:32 33.59429 -97.09071 27877 ft 432 kts 359°
2026-05-09 01:32 33.62422 -97.08707 27878 ft 432 kts 359°
2026-05-09 01:33 33.65411 -97.08335 27877 ft 432 kts 359°
2026-05-09 01:33 33.68398 -97.07959 27878 ft 431 kts 359°
2026-05-09 01:33 33.71379 -97.07584 27879 ft 431 kts 359°
2026-05-09 01:33 33.74324 -97.07208 27879 ft 431 kts 359°
2026-05-09 01:34 33.77309 -97.06825 27878 ft 431 kts 359°
2026-05-09 01:34 33.80296 -97.06439 27877 ft 431 kts 359°
2026-05-09 01:34 33.83277 -97.06052 27875 ft 431 kts 359°
2026-05-09 01:34 33.86261 -97.05671 27874 ft 431 kts 359°
2026-05-09 01:35 33.89237 -97.05292 27875 ft 431 kts 359°
2026-05-09 01:35 33.92216 -97.04916 27873 ft 430 kts 359°
2026-05-09 01:35 33.95192 -97.04540 27871 ft 430 kts 359°
2026-05-09 01:35 33.98167 -97.04163 27870 ft 430 kts 359°
2026-05-09 01:36 34.01144 -97.03783 27868 ft 430 kts 359°
2026-05-09 01:36 34.04118 -97.03403 27874 ft 430 kts 360°
2026-05-09 01:36 34.07086 -97.03028 27885 ft 428 kts 360°
2026-05-09 01:36 34.10047 -97.02651 27887 ft 428 kts 360°
2026-05-09 01:37 34.13003 -97.02276 27889 ft 427 kts 359°
2026-05-09 01:37 34.15956 -97.01900 27887 ft 426 kts 359°
2026-05-09 01:37 34.18899 -97.01521 27884 ft 426 kts 360°
2026-05-09 01:37 34.21843 -97.01139 27880 ft 426 kts 360°
2026-05-09 01:38 34.24786 -97.00758 27872 ft 425 kts 359°
2026-05-09 01:38 34.27729 -97.00379 27706 ft 425 kts 360°
2026-05-09 01:38 34.30660 -97.00000 27236 ft 421 kts 359°
2026-05-09 01:38 34.33564 -96.99623 26612 ft 419 kts 359°
2026-05-09 01:39 34.36434 -96.99537 26023 ft 407 kts 349°
2026-05-09 01:39 34.39184 -97.00082 25445 ft 395 kts 339°
2026-05-09 01:39 34.41735 -97.01183 24941 ft 384 kts 330°
2026-05-09 01:39 34.44093 -97.02645 24345 ft 379 kts 327°
2026-05-09 01:40 34.46415 -97.04124 23873 ft 374 kts 328°
2026-05-09 01:40 34.48710 -97.05585 23316 ft 371 kts 328°
2026-05-09 01:40 34.50989 -97.07038 22815 ft 369 kts 327°
2026-05-09 01:40 34.53255 -97.08483 22352 ft 367 kts 327°
2026-05-09 01:41 34.55502 -97.09918 21885 ft 364 kts 327°
2026-05-09 01:41 34.57735 -97.11346 21432 ft 361 kts 327°
2026-05-09 01:41 34.59947 -97.12761 20992 ft 358 kts 327°
2026-05-09 01:41 34.62144 -97.14170 20541 ft 355 kts 327°
2026-05-09 01:42 34.64320 -97.15563 20083 ft 352 kts 327°
2026-05-09 01:42 34.66481 -97.16948 19618 ft 350 kts 327°
2026-05-09 01:42 34.68627 -97.18322 19144 ft 347 kts 326°
2026-05-09 01:42 34.70758 -97.19689 18663 ft 345 kts 326°
2026-05-09 01:43 34.72871 -97.21050 18184 ft 343 kts 326°
2026-05-09 01:43 34.74962 -97.22397 17828 ft 338 kts 326°
2026-05-09 01:43 34.77032 -97.23729 17350 ft 336 kts 326°
2026-05-09 01:43 34.79090 -97.25076 16799 ft 336 kts 324°
2026-05-09 01:44 34.81131 -97.26535 15990 ft 344 kts 323°
2026-05-09 01:44 34.83136 -97.28045 15800 ft 333 kts 322°
2026-05-09 01:44 34.85032 -97.29495 15678 ft 319 kts 322°
2026-05-09 01:44 34.86894 -97.30918 15507 ft 306 kts 322°
2026-05-09 01:45 34.88648 -97.32254 15093 ft 298 kts 322°
2026-05-09 01:45 34.90412 -97.33596 14839 ft 295 kts 321°
2026-05-09 01:45 34.92148 -97.34923 14462 ft 295 kts 321°
2026-05-09 01:45 34.93865 -97.36240 14082 ft 295 kts 321°
2026-05-09 01:46 34.95602 -97.37572 13757 ft 294 kts 321°
2026-05-09 01:46 34.97334 -97.38901 13386 ft 293 kts 322°
2026-05-09 01:46 34.99064 -97.40220 12985 ft 294 kts 322°
2026-05-09 01:46 35.00787 -97.41532 12718 ft 290 kts 322°
2026-05-09 01:47 35.02494 -97.42830 12186 ft 289 kts 322°
2026-05-09 01:47 35.04185 -97.44118 11756 ft 285 kts 322°
2026-05-09 01:47 35.05861 -97.45397 11375 ft 284 kts 323°
2026-05-09 01:47 35.07676 -97.46415 10987 ft 291 kts 337°
2026-05-09 01:48 35.09691 -97.46839 10598 ft 298 kts 352°
2026-05-09 01:48 35.11761 -97.46960 10199 ft 297 kts 352°
2026-05-09 01:48 35.13817 -97.47082 9871 ft 294 kts 353°
2026-05-09 01:48 35.15856 -97.47209 9494 ft 292 kts 353°
2026-05-09 01:49 35.17878 -97.47338 9110 ft 291 kts 353°
2026-05-09 01:49 35.19885 -97.47468 8722 ft 286 kts 354°
2026-05-09 01:49 35.21863 -97.47594 8286 ft 283 kts 354°
2026-05-09 01:49 35.23827 -97.47718 7911 ft 282 kts 354°
2026-05-09 01:50 35.25761 -97.47844 7751 ft 273 kts 354°
2026-05-09 01:50 35.27625 -97.47965 7621 ft 263 kts 354°
2026-05-09 01:50 35.29419 -97.48083 7495 ft 253 kts 354°
2026-05-09 01:50 35.31145 -97.48197 7314 ft 244 kts 354°
2026-05-09 01:51 35.32835 -97.48304 7003 ft 243 kts 354°
2026-05-09 01:51 35.34511 -97.48406 6714 ft 240 kts 354°
2026-05-09 01:51 35.36165 -97.48513 6432 ft 236 kts 354°
2026-05-09 01:51 35.37797 -97.48621 6152 ft 233 kts 354°
2026-05-09 01:52 35.39407 -97.48709 5928 ft 228 kts 356°
2026-05-09 01:52 35.40948 -97.48724 5873 ft 217 kts 357°
2026-05-09 01:52 35.42448 -97.48716 5654 ft 214 kts 357°
2026-05-09 01:52 35.43931 -97.48713 5428 ft 212 kts 357°
2026-05-09 01:53 35.45396 -97.48720 5203 ft 210 kts 357°
2026-05-09 01:53 35.46360 -97.48729 5052 ft 208 kts 357°
2026-05-09 01:53 35.47803 -97.48751 4830 ft 207 kts 357°
2026-05-09 01:53 35.49235 -97.48783 4601 ft 205 kts 357°
2026-05-09 01:54 35.50649 -97.48823 4392 ft 201 kts 357°
2026-05-09 01:54 35.52029 -97.48870 4151 ft 195 kts 357°
2026-05-09 01:54 35.53368 -97.48922 3924 ft 190 kts 357°
2026-05-09 01:54 35.54669 -97.49051 3690 ft 186 kts 345°
2026-05-09 01:55 35.55678 -97.49954 3467 ft 182 kts 303°
2026-05-09 01:55 35.56089 -97.51429 3243 ft 184 kts 281°
2026-05-09 01:55 35.56237 -97.52996 3074 ft 185 kts 275°
2026-05-09 01:55 35.56267 -97.54580 3010 ft 186 kts 271°
2026-05-09 01:56 35.56264 -97.56172 3016 ft 187 kts 268°
2026-05-09 01:56 35.55791 -97.57641 3013 ft 190 kts 229°
2026-05-09 01:56 35.54692 -97.58537 3018 ft 191 kts 203°
2026-05-09 01:56 35.53429 -97.58899 3012 ft 182 kts 182°
2026-05-09 01:57 35.52185 -97.58903 3011 ft 176 kts 179°
2026-05-09 01:57 35.50966 -97.58903 3014 ft 175 kts 179°
2026-05-09 01:57 35.49753 -97.58902 2998 ft 174 kts 179°
2026-05-09 01:57 35.48558 -97.58902 2861 ft 164 kts 179°
2026-05-09 01:58 35.47481 -97.58901 2667 ft 148 kts 178°
2026-05-09 01:58 35.46483 -97.58900 2486 ft 139 kts 177°
2026-05-09 01:58 35.45532 -97.58899 2311 ft 135 kts 179°
2026-05-09 01:58 35.44591 -97.58893 2104 ft 135 kts 179°
2026-05-09 01:59 35.43654 -97.58891 1955 ft 134 kts 180°
2026-05-09 01:59 35.42720 -97.58889 1778 ft 134 kts 179°
2026-05-09 01:59 35.41789 -97.58898 1618 ft 134 kts 180°
2026-05-09 01:59 35.40860 -97.58896 1426 ft 133 kts 179°
2026-05-09 02:00 35.39945 -97.58900 1294 ft 122 kts 180°
2026-05-09 02:00 35.39244 -97.58895 1293 ft 76 kts 179°
2026-05-09 02:00 35.38909 -97.58894 1294 ft 26 kts 180°
2026-05-09 02:00 35.38804 -97.58957 1293 ft 17 kts 244°
2026-05-09 02:01 35.38842 -97.59062 1292 ft 14 kts 349°
2026-05-09 02:01 35.38942 -97.59061 1293 ft 17 kts
2026-05-09 02:01 35.39081 -97.59062 1292 ft 23 kts 359°
2026-05-09 02:01 35.39198 -97.59070 1291 ft 15 kts 334°
2026-05-09 02:02 35.39215 -97.59215 1294 ft 23 kts 268°
2026-05-09 02:02 35.39215 -97.59424 1296 ft 25 kts 270°
2026-05-09 02:02 35.39215 -97.59646 1293 ft 27 kts 270°
2026-05-09 02:02 35.39220 -97.59836 1293 ft 19 kts 281°
2026-05-09 02:03 35.39304 -97.59963 1293 ft 21 kts 316°
2026-05-09 02:03 35.39400 -97.60063 1293 ft 14 kts 343°
2026-05-09 02:03 35.39431 -97.59985 1296 ft 13 kts 116°
2026-05-09 02:03 35.39443 -97.59915 1297 ft 3 kts 28°
2026-05-09 02:04 35.39460 -97.59903 1297 ft 2 kts 29°
2026-05-09 02:04 35.39474 -97.59893 1297 ft 3 kts 31°
2026-05-09 02:04 35.39481 -97.59888 1297 ft 0 kts 31°